Probability
0 0 0 0 0 0 0 0 0 0 0 0 0 0 0 0 0 0 0 0 0 0 0 0 0 0 0 0 0 0 0 0 0 0 0 0 0 0 0 0 0 0 0
0 0 0 0 0 0 0 0 0 0 0 0 0 0 0 0 0 0 0 0 0 0 0 0 0 0 0 0 0 0 0 0 0 0 0 0 0 0 0 0 0 0 0
0 0 0 0 0 0 0 0 0 0 0 0 0 0 0 0 0 0 0 0 0 0 0 0 0 0 0 0 0 0 0 0 0 0 0 0 0 0 0 0 0 0 0
0 0 0 0 0 0 0 0 0 0 0 0 0 0 0 0 0 0 0 0 0 0 0 0 0 0 0 0 0 0 0 0 0 0 0 0 0 0 0 0 0 0 0
0 0 0 0 0 0 0 0 0 0 0 0 0 0 0 0 0 0 0 0 0 0 0 0 0 0 0 0 0 0 0 0 0 0 0 0 0 0 0 0 0 0 0
0 0 0 0 0 0 0 0 0 0 0 0 0 0 0 0 0 0 0 0 0 0 0 0 0 0 0 0 0 0 0 0 0 0 0 0 0 0 0 0 0 0 0
0 0 0 0 0 0 0 0 0 0 0 0 0 0 0 0 0 0 0 0 0 0 0 0 0 0 0 0 0 0 0 0 0 0 0 0 0 0 0 0 0 0 0
0 0 0 0 0 0 0 0 0 0 0 0 0 0 0 0 0 0 0 0 0 0 0 0 0 0 0 0 0 0 0 0 0 0 0 0 0 0 0 0 0 0 0
0 0 0 0 0 0 0 0 0 0 0 0 0 0 0 0 0 0 0 0 0 0 0 0 0 0 0 0 0 0 0 0 0 0 0 0 0 0 0 0 0 0 0
0 0 0 0 0 0 0 0 0 0 0 0 0 0 0 0 0 0 0 0 0 0 0 0 0 0 0 0 0 0 0 0 0 0 0 0 0 0 0 0 0 0 0
0 0 0 0 0 0 0 0 0 0 0 0 0 0 0 0 0 0 0 0 0 0 0 0 0 0 0 0 0 0 0 0 0 0 0 0 0 0 0 0 0 0 0
0 0 0 0 0 0 0 0 0 0 0 0 0 0 0 0 0 0 0 0 0 0 0 0 0 0 0 0 0 0 0 0 0 0 0 0 0 0 0 0 0 0 0
0 0 0 0 0 0 0 0 0 0 0 0 0 0 0 0 0 0 0 0 0 0 0 0 0 0 0 0 0 0 0 0 0 0 0 0 0 0 0 0 0 0 0
0 0 0 0 0 0 0 0 0 0 0 0 0 0 0 0 0 0 0 0 0 0 0 0 0 0 0 0 0 0 0 0 0 0 0 0 0 0 0 0 0 0 0
0 0 0 0 0 0 0 0 0 0 0 0 0 0 0 0 0 0 0 0 0 0 0 0 0 0 0 0 0 0 0 0 0 0 0 0 0 0 0 0 0 0 0
0 0 0 0 0 0 0 0 0 0 0 0 0 0 0 0 0 0 0 0 0 0 0 0 0 0 0 0 0 0 0 0 0 0 0 0 0 0 0 0 0 0 0
0 0 0 0 0 0 0 0 0 0 0 0 0 0 0 0 0 0 0 0 0 0 0 0 0 0 0 0 0 0 0 0 0 0 0 0 0 0 0 0 0 0 0
0 0 0 0 0 0 0 0 0 0 0 0 0 0 0 0 0 0 0 0 0 0 0 0 0 0 0 0 0 0 0 0 0 0 0 0 0 0 0 0 0 0 0
0 0 0 0 0 0 0 0 0 0 0 0 0 0 0 0 0 0 0 0 0 0 0 0 0 0 0 0 0 0 0 0 0 0 0 0 0 0 0 0 0 0 0
0 0 0 0 0 0 0 0 0 0 0 0 0 0 0 0 0 0 0 0 0 0 0 0 0 0 0 0 0 0 0 0 0 0 0 0 0 0 0 0 0 0 0
0 0 0 0 0 0 0 0 0 0 0 0 0 0 0 0 0 0 0 0 0 0 0 0 0 0 0 0 0 0 0 0 0 0 0 0 0 0 0 0 0 0 0
0 0 0 0 0 0 0 0 0 0 0 0 0 0 0 0 0 0 0 0 0 0 0 0 0 0 0 0 0 0 0 0 0 0 0 0 0 0 0 0 0 0 0
0 0 0 0 0 0 0 0 0 0 0 0 0 0 0 0 0 0 0 0 0 0 0 0 0 0 0 0 0 0 0 0 0 0 0 0 0 0 0 0 0 0 0
0 0 0 0 0 0 0 0 0 0 0 0 0 0 0 0 0 0 0 0 0 0 0 0 0 0 0 0 0 0 0 0 0 0 0 0 0 0 0 0 0 0 0
0 0 0 0 0 0 0 0 0 0 0 0 0 0 0 0 0 0 0 0 0 0 0 0 0 0 0 0 0 0 0 0 0 0 0 0 0 0 0 0 0 0 0
0 0 0 0 0 0 0 0 0 0 0 0 0 0 0 0 0 0 0 0 0 0 0 0 0 0 0 0 0 0 0 0 0 0 0 0 0 0 0 0 0 0 0
Wind_Speed
16 16 16 16 15 15 14 15 13 12 13 14 14 14 14 14 14 13 12 14 13 11 10 10 10 9 6 5 4 4 3 3 3 2 2 2 4 5 5 5 6 8 7
14 15 16 16 16 16 16 15 14 14 14 14 14 14 15 15 15 15 15 15 14 14 13 12 11 8 8 6 5 5 4 4 3 3 3 3 5 5 6 7 7 6 8
14 15 16 17 17 18 16 15 15 15 14 13 14 15 15 16 15 15 15 15 14 14 13 13 12 11 10 7 7 6 5 4 3 3 3 3 4 4 6 7 8 8 8
14 16 17 18 18 17 16 15 15 15 15 16 15 15 15 15 15 15 15 14 14 13 12 12 12 12 11 10 7 7 6 5 5 4 4 4 5 5 5 6 7 7 7
16 17 18 17 16 15 15 14 14 14 15 15 15 14 14 13 14 16 15 15 14 13 12 11 11 11 12 10 7 8 8 6 5 5 5 5 6 5 5 5 7 8 9
17 18 16 14 14 13 13 13 13 14 14 14 14 15 16 13 20 24 18 15 14 14 13 11 9 9 12 14 13 12 11 8 7 6 6 7 8 7 6 6 7 9 8
15 13 12 12 13 14 13 14 15 16 14 15 15 16 16 18 26 26 22 14 14 13 13 11 8 8 9 9 12 14 13 14 13 8 8 9 8 7 7 8 8 10 10
13 13 12 14 14 13 14 15 15 13 14 14 15 16 15 16 26 27 23 14 12 12 12 12 11 10 10 10 9 9 10 11 13 11 10 10 8 7 7 9 10 10 11
13 14 14 13 13 13 14 15 13 12 12 12 12 13 13 14 24 26 23 11 10 11 10 10 10 10 14 16 10 10 10 9 12 16 16 14 14 13 10 7 7 8 9
12 11 10 11 11 13 13 12 10 9 10 10 9 10 10 10 21 25 24 10 10 9 8 9 11 13 15 17 12 10 11 10 8 8 10 12 11 11 12 9 7 7 8
5 6 8 9 10 10 9 8 8 8 8 8 8 7 8 9 19 26 25 11 11 10 9 8 9 17 18 19 17 12 13 9 7 7 7 7 6 6 6 7 6 7 8
6 7 7 8 8 7 8 8 9 9 9 9 8 8 7 8 12 21 26 20 15 11 10 9 9 18 20 20 16 15 16 11 6 6 6 7 6 6 5 5 7 7 8
6 6 7 8 7 8 9 10 9 9 8 8 8 8 8 8 12 21 24 23 21 11 8 12 14 17 18 15 16 15 9 6 6 7 7 7 5 4 4 4 5 6 7
7 7 7 8 8 7 7 8 8 8 8 8 9 9 8 9 10 11 12 13 16 14 9 9 15 16 13 9 7 8 6 6 6 7 6 5 3 3 4 4 4 4 5
7 7 7 6 7 7 6 6 7 7 8 9 8 9 10 10 13 17 13 11 10 9 8 6 6 7 7 7 6 6 5 5 6 5 5 4 4 4 4 3 3 4 5
7 6 5 5 5 5 5 4 6 6 9 11 10 9 7 9 14 20 20 18 17 16 9 7 8 8 9 8 7 7 6 6 6 5 5 5 5 4 4 4 4 4 5
6 5 5 5 5 5 5 5 4 4 6 7 9 10 8 9 12 15 17 17 17 17 9 8 8 8 8 7 7 7 6 6 5 5 5 5 5 4 4 4 4 4 5
5 5 4 4 4 4 4 4 4 4 4 3 3 5 7 9 10 12 14 12 10 10 8 8 7 7 7 7 6 6 5 5 5 5 5 5 5 4 4 4 4 5 4
4 4 3 3 3 3 3 3 3 3 3 3 2 2 2 5 7 7 9 7 7 7 6 6 5 5 5 5 5 5 6 5 5 5 5 5 4 4 4 4 4 4 5
5 6 4 4 3 3 3 3 3 3 3 3 3 2 1 3 3 4 3 4 4 5 5 5 4 5 5 5 5 5 5 5 6 5 5 4 4 4 5 5 4 4 4
4 5 5 4 4 3 3 2 2 2 2 2 2 1 3 2 3 3 3 3 3 4 4 4 4 5 5 5 5 6 7 5 5 5 5 4 4 4 4 4 4 4 4
4 4 4 4 4 3 3 2 2 2 2 2 1 1 2 1 1 2 2 1 1 1 2 3 3 4 4 5 6 6 6 6 6 5 5 5 5 5 4 4 4 4 4
5 5 5 5 4 4 4 3 3 2 1 1 1 1 1 1 1 2 2 2 2 2 2 2 3 3 3 4 4 5 6 6 6 6 6 5 5 5 5 5 6 5 5
6 6 5 4 4 4 3 3 3 2 1 1 0 0 1 1 1 2 2 2 2 2 2 3 3 5 6 5 4 4 4 4 5 5 8 6 6 5 5 5 6 6 6
6 5 5 4 4 3 3 2 2 2 1 0 1 1 1 2 2 2 2 2 3 3 4 4 3 5 7 8 7 6 7 9 8 6 6 6 7 7 7 7 6 6 6
5 5 4 4 3 3 2 2 1 1 1 1 2 2 2 3 3 3 3 3 3 4 4 5 6 7 7 7 9 10 10 11 11 10 7 6 7 7 7 6 8 7 7
Wind_Direction
210 210 211 211 208 205 202 200 195 188 182 183 181 176 175 173 172 171 165 162 160 155 154 152 146 144 142 141 139 142 144 157 184 182 216 242 266 272 279 284 291 293 293
208 210 212 211 208 207 205 201 194 190 186 184 182 179 177 175 173 172 166 166 164 162 160 158 154 152 154 154 158 161 163 174 194 217 228 249 259 276 285 287 285 283 282
207 209 211 212 210 209 206 199 194 190 186 184 185 184 180 178 176 174 170 169 169 167 165 166 163 162 166 168 170 168 167 174 195 218 243 253 266 272 285 281 279 277 278
207 209 214 214 211 210 206 199 194 190 188 188 189 189 184 180 176 172 170 169 168 167 168 169 168 174 174 172 173 175 172 180 195 220 242 254 262 269 273 283 288 286 288
208 212 216 214 211 208 204 198 194 192 192 190 189 189 184 180 179 175 172 171 169 167 169 171 175 179 179 176 174 177 177 187 195 215 237 253 258 261 265 278 286 296 293
211 215 215 209 205 203 199 193 192 194 193 190 190 188 187 188 184 181 173 172 171 170 170 172 173 176 186 191 195 193 191 192 201 213 233 245 258 264 270 275 286 295 298
214 214 208 202 200 200 194 192 196 196 193 193 193 192 193 193 186 184 177 170 173 175 171 170 172 181 185 193 207 212 215 219 217 217 240 249 261 265 273 276 276 280 283
213 212 205 202 201 196 194 198 198 195 195 197 196 196 195 196 188 183 175 170 173 175 174 176 176 181 189 192 198 210 220 226 228 231 242 253 259 265 263 271 280 282 282
214 212 206 200 196 194 197 199 197 194 197 199 195 194 194 192 188 182 173 168 172 174 176 178 181 186 198 198 200 213 225 234 239 239 245 253 259 263 264 268 269 275 284
215 210 200 192 191 194 196 194 192 192 195 193 193 190 189 183 185 182 175 170 173 173 176 184 192 197 204 204 207 214 227 231 225 235 244 253 257 258 257 253 259 267 280
189 180 181 184 188 189 185 181 177 181 182 183 178 174 176 177 187 185 182 178 178 177 182 191 200 208 212 215 216 221 232 231 225 229 236 240 241 240 241 242 244 252 265
156 162 167 168 172 168 168 170 172 174 175 176 171 169 170 173 187 192 191 191 184 184 194 198 202 208 215 220 222 227 233 231 226 229 236 240 240 238 237 239 243 248 256
135 141 147 150 153 158 164 166 168 172 176 177 178 180 178 178 192 197 197 198 196 195 201 203 204 210 216 222 226 225 219 212 219 229 238 243 241 241 240 242 245 250 259
129 134 140 144 149 155 160 165 171 176 178 180 183 185 181 182 187 190 196 200 203 207 207 204 210 215 214 205 207 212 210 213 220 231 241 243 230 224 230 234 244 249 262
126 131 138 143 147 155 161 171 177 183 187 185 188 187 187 191 196 192 188 193 195 199 184 187 195 198 201 201 203 202 201 202 213 223 229 230 224 224 228 228 240 246 255
130 135 137 140 143 148 152 156 182 182 193 199 196 193 198 198 190 196 200 203 201 193 186 201 206 208 211 208 206 204 204 207 210 213 218 220 220 220 226 225 229 240 256
132 134 133 137 143 148 153 158 158 159 177 195 199 197 195 192 194 196 200 203 203 197 205 209 210 210 210 208 206 206 206 201 199 206 210 211 214 218 223 226 230 240 252
109 111 120 131 140 147 152 158 160 161 162 162 185 192 194 195 196 196 196 194 201 203 210 211 210 208 206 203 199 198 196 191 195 200 203 203 205 212 219 226 230 238 253
91 99 102 109 117 124 129 135 144 156 159 150 134 142 168 182 178 186 188 196 199 202 205 205 201 195 191 188 187 188 190 192 192 194 200 199 199 207 217 223 231 232 242
66 73 84 100 105 109 117 132 144 154 160 165 172 165 147 159 175 181 187 194 198 198 196 193 185 180 177 180 181 182 187 190 189 195 198 196 196 204 213 216 222 228 233
66 69 69 80 83 91 102 117 132 147 160 164 166 191 191 194 192 188 188 195 199 194 186 181 175 176 177 178 182 187 192 195 194 194 197 197 194 201 210 216 220 224 236
60 62 59 64 68 70 74 79 92 108 127 140 133 171 190 171 184 189 191 185 165 155 165 172 179 182 184 185 187 189 195 198 196 194 197 193 194 200 203 209 216 221 224
60 67 65 60 61 67 66 63 66 74 85 101 131 149 167 182 199 209 203 190 177 177 174 185 189 185 185 192 198 200 203 203 198 191 192 194 197 200 202 209 211 218 224
57 63 67 64 61 61 63 62 59 62 66 77 145 224 231 226 227 225 217 203 202 199 194 200 209 206 199 197 202 207 211 207 194 194 198 200 201 202 204 209 215 217 223
54 57 59 57 57 57 58 57 53 49 42 337 278 264 258 251 246 241 232 225 224 224 219 216 216 216 214 214 213 213 215 213 205 194 192 201 206 205 206 210 211 212 214
53 54 53 50 48 44 40 33 19 352 318 296 280 272 265 259 255 251 243 236 233 233 231 227 226 225 224 223 224 223 221 221 214 206 200 202 206 207 202 207 210 212 214